This is the latest recevied weather packets stored in our database for station/object DN9EL-10. If no packets are shown the sender has not sent any weather packets the latest 10 day(s).
| Time | Temp. | Humidity | Pressure | Rain* | Wind** | Luminosity | Snow |
|---|---|---|---|---|---|---|---|
| 1777535290 | 1.67° C | 47% | 976.2 hPa | - | - | - | - |
| 1777534395 | 0.56° C | 48% | 976.3 hPa | - | - | - | - |
| 1777533490 | 0° C | 48% | 976.3 hPa | - | - | - | - |
| 1777532590 | -0.56° C | 49% | 976.3 hPa | - | - | - | - |
| 1777531690 | -0.56° C | 49% | 976.3 hPa | - | - | - | - |
| 1777530790 | -1.11° C | 50% | 976.3 hPa | - | - | - | - |
| 1777529890 | -1.11° C | 50% | 976.1 hPa | - | - | - | - |
| 1777528990 | -1.11° C | 51% | 976 hPa | - | - | - | - |
| 1777528089 | -1.11° C | 51% | 975.9 hPa | - | - | - | - |
| 1777527189 | -1.11° C | 51% | 975.8 hPa | - | - | - | - |
| 1777526289 | -1.11° C | 51% | 975.8 hPa | - | - | - | - |
| 1777525389 | -1.11° C | 52% | 975.7 hPa | - | - | - | - |
| 1777524489 | -1.11° C | 51% | 975.7 hPa | - | - | - | - |
| 1777523593 | -0.56° C | 51% | 975.5 hPa | - | - | - | - |
| 1777522689 | -0.56° C | 51% | 975.5 hPa | - | - | - | - |
| 1777521789 | -0.56° C | 50% | 975.5 hPa | - | - | - | - |
| 1777520889 | -0.56° C | 50% | 975.4 hPa | - | - | - | - |
| 1777519989 | 0° C | 50% | 975.3 hPa | - | - | - | - |
| 1777519089 | 0.56° C | 49% | 975.3 hPa | - | - | - | - |
| 1777518189 | 0.56° C | 49% | 975.2 hPa | - | - | - | - |
| 1777517288 | 0.56° C | 49% | 975.2 hPa | - | - | - | - |
| 1777516389 | 1.11° C | 49% | 975.2 hPa | - | - | - | - |
| 1777515488 | 1.11° C | 49% | 975.2 hPa | - | - | - | - |
| 1777514588 | 1.67° C | 48% | 975.2 hPa | - | - | - | - |
| 1777513688 | 1.67° C | 48% | 975 hPa | - | - | - | - |
* Rain since midnight (hover to see other rain measurements)
** Current wind speed in m/s (hover to see current wind gust speed)